| time (UTC) | temp F | wind direction | speed MPH | gust MPH | rain 1hr in | rain 24hr in | rain mn in | humidity % | barometer mb |
| 20260503213057 | 60 | 331 | 5.0 | 16.0 | 0.00 | 0.00 | 0.00 | 37 | 1014.8 |
| 20260503211554 | 60 | 4 | 7.0 | 16.0 | 0.00 | 0.00 | 0.00 | 37 | 1014.6 |
| 20260503204556 | 60 | 340 | 6.0 | 20.0 | 0.00 | 0.00 | 0.00 | 38 | 1014.7 |
| 20260503203056 | 60 | 310 | 5.0 | 14.0 | 0.00 | 0.00 | 0.00 | 37 | 1014.6 |
| 20260503201554 | 59 | 281 | 8.0 | 17.0 | 0.00 | 0.00 | 0.00 | 36 | 1014.5 |
| 20260503200057 | 59 | 308 | 6.0 | 16.0 | 0.00 | 0.00 | 0.00 | 37 | 1014.7 |
| 20260503194553 | 59 | 348 | 9.0 | 15.0 | 0.00 | 0.00 | 0.00 | 36 | 1014.7 |
| 20260503193054 | 59 | 321 | 8.0 | 16.0 | 0.00 | 0.00 | 0.00 | 36 | 1014.9 |
| 20260503191551 | 59 | 327 | 8.0 | 16.0 | 0.00 | 0.00 | 0.00 | 37 | 1014.8 |
| 20260503190055 | 59 | 335 | 8.0 | 15.0 | 0.00 | 0.00 | 0.00 | 37 | 1014.8 |
| 20260503184610 | 58 | 269 | 8.0 | 18.0 | 0.00 | 0.00 | 0.00 | 38 | 1014.9 |
| 20260503183106 | 58 | 346 | 11.0 | 19.0 | 0.00 | 0.00 | 0.00 | 37 | 1015.3 |
| 20260503181607 | 58 | 323 | 7.0 | 17.0 | 0.00 | 0.00 | 0.00 | 39 | 1015.5 |
| 20260503180056 | 57 | 333 | 10.0 | 23.0 | 0.00 | 0.00 | 0.00 | 38 | 1015.5 |
| 20260503174556 | 57 | 347 | 8.0 | 17.0 | 0.00 | 0.00 | 0.00 | 39 | 1015.5 |
| 20260503173058 | 56 | 297 | 7.0 | 17.0 | 0.00 | 0.00 | 0.00 | 41 | 1015.4 |
| 20260503171552 | 56 | 352 | 9.0 | 17.0 | 0.00 | 0.00 | 0.00 | 41 | 1015.4 |
| 20260503081622 | 46 | 355 | 4.0 | 8.0 | 0.00 | 0.00 | 0.00 | 70 | 1012.4 |
| 20260503080111 | 47 | 331 | 5.0 | 9.0 | 0.00 | 0.00 | 0.00 | 68 | 1012.2 |
| 20260503071554 | 46 | 323 | 3.0 | 7.0 | 0.00 | 0.00 | 0.00 | 69 | 1011.9 |
| 20260503054604 | 49 | 333 | 3.0 | 9.0 | 0.00 | 0.00 | 0.00 | 63 | 1011.6 |
| 20260503053055 | 49 | 330 | 2.0 | 4.0 | 0.00 | 0.00 | 0.00 | 63 | 1011.5 |
| 20260503051557 | 50 | 322 | 2.0 | 5.0 | 0.00 | 0.00 | 0.00 | 62 | 1011.5 |
| 20260503050054 | 51 | 299 | 3.0 | 8.0 | 0.00 | 0.00 | 0.00 | 60 | 1011.6 |
| 20260503044611 | 51 | 354 | 4.0 | 7.0 | 0.00 | 0.00 | 0.00 | 60 | 1011.3 |
| 20260503043116 | 51 | 8 | 3.0 | 6.0 | 0.00 | 0.00 | 0.00 | 59 | 1011.6 |
| 20260503041558 | 52 | 319 | 3.0 | 7.0 | 0.00 | 0.00 | 0.00 | 59 | 1011.7 |
| 20260503040100 | 52 | 15 | 4.0 | 10.0 | 0.00 | 0.00 | 0.00 | 59 | 1012.0 |
| 20260503034600 | 52 | 31 | 3.0 | 8.0 | 0.00 | 0.00 | 0.00 | 60 | 1011.4 |
| 20260503033131 | 52 | 319 | 4.0 | 8.0 | 0.00 | 0.00 | 0.00 | 61 | 1011.7 |
| 20260503031559 | 52 | 327 | 3.0 | 5.0 | 0.00 | 0.00 | 0.00 | 62 | 1011.5 |
| 20260503030104 | 52 | 339 | 2.0 | 5.0 | 0.00 | 0.00 | 0.00 | 65 | 1011.5 |
| 20260503024621 | 52 | 336 | 2.0 | 6.0 | 0.00 | 0.00 | 0.00 | 65 | 1011.8 |
| 20260503023050 | 52 | 321 | 1.0 | 5.0 | 0.00 | 0.00 | 0.00 | 66 | 1011.8 |
| 20260503021600 | 52 | 328 | 1.0 | 2.0 | 0.00 | 0.00 | 0.00 | 66 | 1011.7 |
| 20260503020052 | 52 | 8 | 0.0 | 1.0 | 0.00 | 0.00 | 0.00 | 67 | 1011.8 |
| 20260503014559 | 52 | 342 | 0.0 | 2.0 | 0.00 | 0.00 | 0.00 | 69 | 1011.6 |
| 20260503013056 | 52 | 13 | 0.0 | 1.0 | 0.00 | 0.00 | 0.00 | 69 | 1011.8 |
| 20260503011604 | 52 | 0 | 0.0 | 0.0 | 0.00 | 0.00 | 0.00 | 71 | 1011.4 |
| 20260503004551 | 53 | 0 | 0.0 | 1.0 | 0.00 | 0.00 | 0.00 | 68 | 1011.4 |
| 20260503003055 | 53 | 0 | 0.0 | 1.0 | 0.00 | 0.00 | 0.00 | 69 | 1011.0 |
| 20260503001603 | 53 | 0 | 0.0 | 1.0 | 0.00 | 0.00 | 0.00 | 69 | 1011.0 |
| 20260503000107 | 53 | 0 | 0.0 | 0.0 | 0.00 | 0.00 | 0.00 | 69 | 1011.1 |
| 20260502234617 | 54 | 0 | 0.0 | 0.0 | 0.00 | 0.00 | 0.00 | 67 | 1011.1 |
| 20260502233110 | 55 | 0 | 0.0 | 1.0 | 0.00 | 0.00 | 0.00 | 64 | 1010.9 |
| 20260502231612 | 56 | 342 | 1.0 | 4.0 | 0.00 | 0.00 | 0.00 | 62 | 1010.8 |
| 20260502230058 | 56 | 334 | 2.0 | 6.0 | 0.00 | 0.00 | 0.00 | 61 | 1010.8 |
| 20260502224600 | 56 | 316 | 2.0 | 6.0 | 0.00 | 0.00 | 0.00 | 60 | 1010.8 |
| 20260502223059 | 57 | 314 | 2.0 | 6.0 | 0.00 | 0.00 | 0.00 | 57 | 1011.1 |
| 20260502221603 | 57 | 316 | 3.0 | 8.0 | 0.00 | 0.00 | 0.00 | 55 | 1011.0 |
| 20260502220053 | 58 | 321 | 4.0 | 7.0 | 0.00 | 0.00 | 0.00 | 55 | 1011.0 |
| 20260502214604 | 57 | 314 | 4.0 | 9.0 | 0.00 | 0.00 | 0.00 | 57 | 1010.8 |